BASE

*** Immediate Availability ***
1. Long Term and Short Term Space. Ideal for CL-605 or similar.
2. Office Units. Ideal for aviation company / airline.

EGKB 161050Z 25015KT 220V280 9999 FEW010 05/01 Q0996

Hangar Services – Aircraft Sales
Aircraft consulting – managing
fly@1aviation.co.uk
+447796170170
Biggin Hill – EGKB
51°19’14.2″N 0°02’05.7″E
NOTAM AIP – Plates
METAR TAF Weather
1aviation.co.uk
Hangar 170 – Churchill Way
Biggin Hill Airport TN16 3BN
Google Maps

CL605 in Hanger in Biggin Hill

pan1

viewtocanarywharf

1alogo